owner,sensor,date,latitude,longitude,air_temperature,qcFlag 
COMPS,ioos:station:USF.COMPS:TAR:1,2011-05-01T00:00:00Z,28.1560,-82.7580,27.23,1111122 
COMPS,ioos:station:USF.COMPS:TAR:1,2011-05-01T00:06:00Z,28.1560,-82.7580,26.99,1111122 
COMPS,ioos:station:USF.COMPS:TAR:1,2011-05-01T00:12:00Z,28.1560,-82.7580,26.77,1111122 
COMPS,ioos:station:USF.COMPS:TAR:1,2011-05-01T00:18:00Z,28.1560,-82.7580,26.57,1111122 
COMPS,ioos:station:USF.COMPS:TAR:1,2011-05-01T00:24:00Z,28.1560,-82.7580,26.44,1111122 
COMPS,ioos:station:USF.COMPS:TAR:1,2011-05-01T00:30:00Z,28.1560,-82.7580,26.22,1111122 
COMPS,ioos:station:USF.COMPS:TAR:1,2011-05-01T00:36:00Z,28.1560,-82.7580,26.06,1111122 
COMPS,ioos:station:USF.COMPS:TAR:1,2011-05-01T00:42:00Z,28.1560,-82.7580,25.95,1111122 
COMPS,ioos:station:USF.COMPS:TAR:1,2011-05-01T00:48:00Z,28.1560,-82.7580,25.76,1111122 
COMPS,ioos:station:USF.COMPS:TAR:1,2011-05-01T00:54:00Z,28.1560,-82.7580,25.6,1111122 
COMPS,ioos:station:USF.COMPS:TAR:1,2011-05-01T01:00:00Z,28.1560,-82.7580,25.6,1111122 
COMPS,ioos:station:USF.COMPS:TAR:1,2011-05-01T01:06:00Z,28.1560,-82.7580,25.69,1111122 
COMPS,ioos:station:USF.COMPS:TAR:1,2011-05-01T01:12:00Z,28.1560,-82.7580,25.99,1111122 
COMPS,ioos:station:USF.COMPS:TAR:1,2011-05-01T01:18:00Z,28.1560,-82.7580,26.01,1111122 
COMPS,ioos:station:USF.COMPS:TAR:1,2011-05-01T01:24:00Z,28.1560,-82.7580,25.92,1111122 
COMPS,ioos:station:USF.COMPS:TAR:1,2011-05-01T01:30:00Z,28.1560,-82.7580,25.76,1111122 
COMPS,ioos:station:USF.COMPS:TAR:1,2011-05-01T01:36:00Z,28.1560,-82.7580,25.67,1111122 
COMPS,ioos:station:USF.COMPS:TAR:1,2011-05-01T01:42:00Z,28.1560,-82.7580,25.49,1111122 
COMPS,ioos:station:USF.COMPS:TAR:1,2011-05-01T01:48:00Z,28.1560,-82.7580,25.47,1111122 
COMPS,ioos:station:USF.COMPS:TAR:1,2011-05-01T01:54:00Z,28.1560,-82.7580,25.55,1111122 
COMPS,ioos:station:USF.COMPS:TAR:1,2011-05-01T02:00:00Z,28.1560,-82.7580,25.6,1111122 
COMPS,ioos:station:USF.COMPS:TAR:1,2011-05-01T02:06:00Z,28.1560,-82.7580,25.57,1111122 
COMPS,ioos:station:USF.COMPS:TAR:1,2011-05-01T02:12:00Z,28.1560,-82.7580,25.49,1111122 
COMPS,ioos:station:USF.COMPS:TAR:1,2011-05-01T02:18:00Z,28.1560,-82.7580,25.48,1111122 
COMPS,ioos:station:USF.COMPS:TAR:1,2011-05-01T02:24:00Z,28.1560,-82.7580,25.33,1111122 
COMPS,ioos:station:USF.COMPS:TAR:1,2011-05-01T02:30:00Z,28.1560,-82.7580,25.22,1111122 
COMPS,ioos:station:USF.COMPS:TAR:1,2011-05-01T02:36:00Z,28.1560,-82.7580,25.09,1111122 
COMPS,ioos:station:USF.COMPS:TAR:1,2011-05-01T02:42:00Z,28.1560,-82.7580,24.94,1111122 
COMPS,ioos:station:USF.COMPS:TAR:1,2011-05-01T02:48:00Z,28.1560,-82.7580,24.83,1111122 
COMPS,ioos:station:USF.COMPS:TAR:1,2011-05-01T02:54:00Z,28.1560,-82.7580,24.69,1111122 
COMPS,ioos:station:USF.COMPS:TAR:1,2011-05-01T03:00:00Z,28.1560,-82.7580,24.7,1111122 
COMPS,ioos:station:USF.COMPS:TAR:1,2011-05-01T03:06:00Z,28.1560,-82.7580,24.42,1111122 
COMPS,ioos:station:USF.COMPS:TAR:1,2011-05-01T03:12:00Z,28.1560,-82.7580,24.33,1111122 
COMPS,ioos:station:USF.COMPS:TAR:1,2011-05-01T03:18:00Z,28.1560,-82.7580,24.16,1111122 
COMPS,ioos:station:USF.COMPS:TAR:1,2011-05-01T03:24:00Z,28.1560,-82.7580,24.14,1111122 
COMPS,ioos:station:USF.COMPS:TAR:1,2011-05-01T03:30:00Z,28.1560,-82.7580,23.94,1111122 
COMPS,ioos:station:USF.COMPS:TAR:1,2011-05-01T03:36:00Z,28.1560,-82.7580,23.79,1111122 
COMPS,ioos:station:USF.COMPS:TAR:1,2011-05-01T03:42:00Z,28.1560,-82.7580,23.66,1111122 
COMPS,ioos:station:USF.COMPS:TAR:1,2011-05-01T03:48:00Z,28.1560,-82.7580,23.56,1111122 
COMPS,ioos:station:USF.COMPS:TAR:1,2011-05-01T03:54:00Z,28.1560,-82.7580,23.44,1111122 
COMPS,ioos:station:USF.COMPS:TAR:1,2011-05-01T04:00:00Z,28.1560,-82.7580,23.3,1111122 
COMPS,ioos:station:USF.COMPS:TAR:1,2011-05-01T04:06:00Z,28.1560,-82.7580,23.18,1111122 
COMPS,ioos:station:USF.COMPS:TAR:1,2011-05-01T04:12:00Z,28.1560,-82.7580,23.07,1111122 
COMPS,ioos:station:USF.COMPS:TAR:1,2011-05-01T04:18:00Z,28.1560,-82.7580,23.0,1111122 
COMPS,ioos:station:USF.COMPS:TAR:1,2011-05-01T04:24:00Z,28.1560,-82.7580,22.94,1111122 
COMPS,ioos:station:USF.COMPS:TAR:1,2011-05-01T04:30:00Z,28.1560,-82.7580,22.77,1111122 
COMPS,ioos:station:USF.COMPS:TAR:1,2011-05-01T04:36:00Z,28.1560,-82.7580,22.7,1111122 
COMPS,ioos:station:USF.COMPS:TAR:1,2011-05-01T04:42:00Z,28.1560,-82.7580,22.58,1111122 
COMPS,ioos:station:USF.COMPS:TAR:1,2011-05-01T04:48:00Z,28.1560,-82.7580,22.46,1111122 
COMPS,ioos:station:USF.COMPS:TAR:1,2011-05-01T04:54:00Z,28.1560,-82.7580,22.36,1111122 
COMPS,ioos:station:USF.COMPS:TAR:1,2011-05-01T05:00:00Z,28.1560,-82.7580,22.4,1111122 
COMPS,ioos:station:USF.COMPS:TAR:1,2011-05-01T05:06:00Z,28.1560,-82.7580,22.14,1111122 
COMPS,ioos:station:USF.COMPS:TAR:1,2011-05-01T05:12:00Z,28.1560,-82.7580,22.06,1111122 
COMPS,ioos:station:USF.COMPS:TAR:1,2011-05-01T05:18:00Z,28.1560,-82.7580,21.98,1111122 
COMPS,ioos:station:USF.COMPS:TAR:1,2011-05-01T05:24:00Z,28.1560,-82.7580,21.93,1111122 
COMPS,ioos:station:USF.COMPS:TAR:1,2011-05-01T05:30:00Z,28.1560,-82.7580,21.81,1111122 
COMPS,ioos:station:USF.COMPS:TAR:1,2011-05-01T05:36:00Z,28.1560,-82.7580,21.72,1111122 
COMPS,ioos:station:USF.COMPS:TAR:1,2011-05-01T05:42:00Z,28.1560,-82.7580,21.67,1111122 
COMPS,ioos:station:USF.COMPS:TAR:1,2011-05-01T05:48:00Z,28.1560,-82.7580,21.55,1111122 
COMPS,ioos:station:USF.COMPS:TAR:1,2011-05-01T05:54:00Z,28.1560,-82.7580,21.43,1111122 
COMPS,ioos:station:USF.COMPS:TAR:1,2011-05-01T06:00:00Z,28.1560,-82.7580,21.4,1111122 
COMPS,ioos:station:USF.COMPS:TAR:1,2011-05-01T06:06:00Z,28.1560,-82.7580,21.28,1111122 
COMPS,ioos:station:USF.COMPS:TAR:1,2011-05-01T06:12:00Z,28.1560,-82.7580,21.28,1111122 
COMPS,ioos:station:USF.COMPS:TAR:1,2011-05-01T06:18:00Z,28.1560,-82.7580,21.19,1111122 
COMPS,ioos:station:USF.COMPS:TAR:1,2011-05-01T06:24:00Z,28.1560,-82.7580,21.18,1111122 
COMPS,ioos:station:USF.COMPS:TAR:1,2011-05-01T06:30:00Z,28.1560,-82.7580,21.01,1111122 
COMPS,ioos:station:USF.COMPS:TAR:1,2011-05-01T06:36:00Z,28.1560,-82.7580,20.91,1111122 
COMPS,ioos:station:USF.COMPS:TAR:1,2011-05-01T06:42:00Z,28.1560,-82.7580,20.8,1111122 
COMPS,ioos:station:USF.COMPS:TAR:1,2011-05-01T06:48:00Z,28.1560,-82.7580,20.63,1111122 
COMPS,ioos:station:USF.COMPS:TAR:1,2011-05-01T06:54:00Z,28.1560,-82.7580,20.52,1111122 
COMPS,ioos:station:USF.COMPS:TAR:1,2011-05-01T07:00:00Z,28.1560,-82.7580,20.5,1111122 
COMPS,ioos:station:USF.COMPS:TAR:1,2011-05-01T07:06:00Z,28.1560,-82.7580,20.33,1111122 
COMPS,ioos:station:USF.COMPS:TAR:1,2011-05-01T07:12:00Z,28.1560,-82.7580,20.27,1111122 
COMPS,ioos:station:USF.COMPS:TAR:1,2011-05-01T07:18:00Z,28.1560,-82.7580,20.2,1111122 
COMPS,ioos:station:USF.COMPS:TAR:1,2011-05-01T07:24:00Z,28.1560,-82.7580,20.26,1111122 
COMPS,ioos:station:USF.COMPS:TAR:1,2011-05-01T07:30:00Z,28.1560,-82.7580,20.12,1111122 
COMPS,ioos:station:USF.COMPS:TAR:1,2011-05-01T07:36:00Z,28.1560,-82.7580,20.07,1111122 
COMPS,ioos:station:USF.COMPS:TAR:1,2011-05-01T07:42:00Z,28.1560,-82.7580,19.95,1111122 
COMPS,ioos:station:USF.COMPS:TAR:1,2011-05-01T07:48:00Z,28.1560,-82.7580,19.92,1111122 
COMPS,ioos:station:USF.COMPS:TAR:1,2011-05-01T07:54:00Z,28.1560,-82.7580,19.87,1111122 
COMPS,ioos:station:USF.COMPS:TAR:1,2011-05-01T08:00:00Z,28.1560,-82.7580,19.9,1111122 
COMPS,ioos:station:USF.COMPS:TAR:1,2011-05-01T08:06:00Z,28.1560,-82.7580,19.75,1111122 
COMPS,ioos:station:USF.COMPS:TAR:1,2011-05-01T08:12:00Z,28.1560,-82.7580,19.65,1111122 
COMPS,ioos:station:USF.COMPS:TAR:1,2011-05-01T08:18:00Z,28.1560,-82.7580,19.65,1111122 
COMPS,ioos:station:USF.COMPS:TAR:1,2011-05-01T08:24:00Z,28.1560,-82.7580,19.77,1111122 
COMPS,ioos:station:USF.COMPS:TAR:1,2011-05-01T08:30:00Z,28.1560,-82.7580,19.79,1111122 
COMPS,ioos:station:USF.COMPS:TAR:1,2011-05-01T08:36:00Z,28.1560,-82.7580,19.79,1111122 
COMPS,ioos:station:USF.COMPS:TAR:1,2011-05-01T08:42:00Z,28.1560,-82.7580,19.79,1111122 
COMPS,ioos:station:USF.COMPS:TAR:1,2011-05-01T08:48:00Z,28.1560,-82.7580,19.76,1111122 
COMPS,ioos:station:USF.COMPS:TAR:1,2011-05-01T08:54:00Z,28.1560,-82.7580,19.68,1111122 
COMPS,ioos:station:USF.COMPS:TAR:1,2011-05-01T09:00:00Z,28.1560,-82.7580,19.7,1111122 
COMPS,ioos:station:USF.COMPS:TAR:1,2011-05-01T09:06:00Z,28.1560,-82.7580,19.52,1111122 
COMPS,ioos:station:USF.COMPS:TAR:1,2011-05-01T09:12:00Z,28.1560,-82.7580,19.52,1111122 
COMPS,ioos:station:USF.COMPS:TAR:1,2011-05-01T09:18:00Z,28.1560,-82.7580,19.42,1111122 
COMPS,ioos:station:USF.COMPS:TAR:1,2011-05-01T09:24:00Z,28.1560,-82.7580,19.43,1111122 
COMPS,ioos:station:USF.COMPS:TAR:1,2011-05-01T09:30:00Z,28.1560,-82.7580,19.37,1111122 
COMPS,ioos:station:USF.COMPS:TAR:1,2011-05-01T09:36:00Z,28.1560,-82.7580,19.27,1111122 
COMPS,ioos:station:USF.COMPS:TAR:1,2011-05-01T09:42:00Z,28.1560,-82.7580,19.27,1111122 
COMPS,ioos:station:USF.COMPS:TAR:1,2011-05-01T09:48:00Z,28.1560,-82.7580,19.27,1111122 
COMPS,ioos:station:USF.COMPS:TAR:1,2011-05-01T09:54:00Z,28.1560,-82.7580,19.28,1111122 
COMPS,ioos:station:USF.COMPS:TAR:1,2011-05-01T10:00:00Z,28.1560,-82.7580,19.3,1111122 
COMPS,ioos:station:USF.COMPS:TAR:1,2011-05-01T10:06:00Z,28.1560,-82.7580,19.15,1111122 
COMPS,ioos:station:USF.COMPS:TAR:1,2011-05-01T10:12:00Z,28.1560,-82.7580,19.19,1111122 
COMPS,ioos:station:USF.COMPS:TAR:1,2011-05-01T10:18:00Z,28.1560,-82.7580,19.2,1111122 
COMPS,ioos:station:USF.COMPS:TAR:1,2011-05-01T10:24:00Z,28.1560,-82.7580,19.28,1111122 
COMPS,ioos:station:USF.COMPS:TAR:1,2011-05-01T10:30:00Z,28.1560,-82.7580,19.28,1111122 
COMPS,ioos:station:USF.COMPS:TAR:1,2011-05-01T10:36:00Z,28.1560,-82.7580,19.35,1111122 
COMPS,ioos:station:USF.COMPS:TAR:1,2011-05-01T10:42:00Z,28.1560,-82.7580,19.29,1111122 
COMPS,ioos:station:USF.COMPS:TAR:1,2011-05-01T10:48:00Z,28.1560,-82.7580,19.28,1111122 
COMPS,ioos:station:USF.COMPS:TAR:1,2011-05-01T10:54:00Z,28.1560,-82.7580,19.27,1111122 
COMPS,ioos:station:USF.COMPS:TAR:1,2011-05-01T11:00:00Z,28.1560,-82.7580,19.3,1111122 
COMPS,ioos:station:USF.COMPS:TAR:1,2011-05-01T11:06:00Z,28.1560,-82.7580,19.5,1111122 
COMPS,ioos:station:USF.COMPS:TAR:1,2011-05-01T11:12:00Z,28.1560,-82.7580,19.56,1111122 
COMPS,ioos:station:USF.COMPS:TAR:1,2011-05-01T11:18:00Z,28.1560,-82.7580,19.59,1111122 
COMPS,ioos:station:USF.COMPS:TAR:1,2011-05-01T11:24:00Z,28.1560,-82.7580,19.71,1111122 
COMPS,ioos:station:USF.COMPS:TAR:1,2011-05-01T11:30:00Z,28.1560,-82.7580,19.81,1111122 
COMPS,ioos:station:USF.COMPS:TAR:1,2011-05-01T11:36:00Z,28.1560,-82.7580,20.06,1111122 
COMPS,ioos:station:USF.COMPS:TAR:1,2011-05-01T11:42:00Z,28.1560,-82.7580,20.57,1111122 
COMPS,ioos:station:USF.COMPS:TAR:1,2011-05-01T11:48:00Z,28.1560,-82.7580,20.91,1111122 
COMPS,ioos:station:USF.COMPS:TAR:1,2011-05-01T11:54:00Z,28.1560,-82.7580,21.24,1111122 
COMPS,ioos:station:USF.COMPS:TAR:1,2011-05-01T12:00:00Z,28.1560,-82.7580,21.2,1111122 
COMPS,ioos:station:USF.COMPS:TAR:1,2011-05-01T12:06:00Z,28.1560,-82.7580,21.83,1111122 
COMPS,ioos:station:USF.COMPS:TAR:1,2011-05-01T12:12:00Z,28.1560,-82.7580,22.32,1111122 
COMPS,ioos:station:USF.COMPS:TAR:1,2011-05-01T12:18:00Z,28.1560,-82.7580,22.53,1111122 
COMPS,ioos:station:USF.COMPS:TAR:1,2011-05-01T12:24:00Z,28.1560,-82.7580,23.02,1111122 
COMPS,ioos:station:USF.COMPS:TAR:1,2011-05-01T12:30:00Z,28.1560,-82.7580,23.38,1111122 
COMPS,ioos:station:USF.COMPS:TAR:1,2011-05-01T12:36:00Z,28.1560,-82.7580,23.56,1111122 
COMPS,ioos:station:USF.COMPS:TAR:1,2011-05-01T12:42:00Z,28.1560,-82.7580,23.75,1111122 
COMPS,ioos:station:USF.COMPS:TAR:1,2011-05-01T12:48:00Z,28.1560,-82.7580,24.03,1111122 
COMPS,ioos:station:USF.COMPS:TAR:1,2011-05-01T12:54:00Z,28.1560,-82.7580,24.09,1111122 
COMPS,ioos:station:USF.COMPS:TAR:1,2011-05-01T13:00:00Z,28.1560,-82.7580,24.1,1111122 
COMPS,ioos:station:USF.COMPS:TAR:1,2011-05-01T13:06:00Z,28.1560,-82.7580,24.53,1111122 
COMPS,ioos:station:USF.COMPS:TAR:1,2011-05-01T13:12:00Z,28.1560,-82.7580,24.59,1111122 
COMPS,ioos:station:USF.COMPS:TAR:1,2011-05-01T13:18:00Z,28.1560,-82.7580,24.77,1111122 
COMPS,ioos:station:USF.COMPS:TAR:1,2011-05-01T13:24:00Z,28.1560,-82.7580,25.04,1111122 
COMPS,ioos:station:USF.COMPS:TAR:1,2011-05-01T13:30:00Z,28.1560,-82.7580,25.1,1111122 
COMPS,ioos:station:USF.COMPS:TAR:1,2011-05-01T13:36:00Z,28.1560,-82.7580,25.75,1111122 
COMPS,ioos:station:USF.COMPS:TAR:1,2011-05-01T13:42:00Z,28.1560,-82.7580,25.86,1111122 
COMPS,ioos:station:USF.COMPS:TAR:1,2011-05-01T13:48:00Z,28.1560,-82.7580,25.95,1111122 
COMPS,ioos:station:USF.COMPS:TAR:1,2011-05-01T13:54:00Z,28.1560,-82.7580,25.7,1111122 
COMPS,ioos:station:USF.COMPS:TAR:1,2011-05-01T14:00:00Z,28.1560,-82.7580,25.7,1111122 
COMPS,ioos:station:USF.COMPS:TAR:1,2011-05-01T14:06:00Z,28.1560,-82.7580,26.48,1111122 
COMPS,ioos:station:USF.COMPS:TAR:1,2011-05-01T14:12:00Z,28.1560,-82.7580,26.87,1111122 
COMPS,ioos:station:USF.COMPS:TAR:1,2011-05-01T14:18:00Z,28.1560,-82.7580,26.74,1111122 
COMPS,ioos:station:USF.COMPS:TAR:1,2011-05-01T14:24:00Z,28.1560,-82.7580,26.48,1111122 
COMPS,ioos:station:USF.COMPS:TAR:1,2011-05-01T14:30:00Z,28.1560,-82.7580,26.51,1111122 
COMPS,ioos:station:USF.COMPS:TAR:1,2011-05-01T14:36:00Z,28.1560,-82.7580,27.18,1111122 
COMPS,ioos:station:USF.COMPS:TAR:1,2011-05-01T14:42:00Z,28.1560,-82.7580,27.38,1111122 
COMPS,ioos:station:USF.COMPS:TAR:1,2011-05-01T14:48:00Z,28.1560,-82.7580,27.46,1111122 
COMPS,ioos:station:USF.COMPS:TAR:1,2011-05-01T14:54:00Z,28.1560,-82.7580,27.33,1111122 
COMPS,ioos:station:USF.COMPS:TAR:1,2011-05-01T15:00:00Z,28.1560,-82.7580,27.3,1111122 
COMPS,ioos:station:USF.COMPS:TAR:1,2011-05-01T16:00:00Z,28.1560,-82.7580,28.5,1111122 
COMPS,ioos:station:USF.COMPS:TAR:1,2011-05-01T16:06:00Z,28.1560,-82.7580,28.75,1111122 
COMPS,ioos:station:USF.COMPS:TAR:1,2011-05-01T16:12:00Z,28.1560,-82.7580,28.77,1111122 
COMPS,ioos:station:USF.COMPS:TAR:1,2011-05-01T16:18:00Z,28.1560,-82.7580,28.84,1111122 
COMPS,ioos:station:USF.COMPS:TAR:1,2011-05-01T16:24:00Z,28.1560,-82.7580,29.05,1111122 
COMPS,ioos:station:USF.COMPS:TAR:1,2011-05-01T16:30:00Z,28.1560,-82.7580,28.91,1111122 
COMPS,ioos:station:USF.COMPS:TAR:1,2011-05-01T16:36:00Z,28.1560,-82.7580,29.64,1111122 
COMPS,ioos:station:USF.COMPS:TAR:1,2011-05-01T16:42:00Z,28.1560,-82.7580,29.66,1111122 
COMPS,ioos:station:USF.COMPS:TAR:1,2011-05-01T16:48:00Z,28.1560,-82.7580,29.43,1111122 
COMPS,ioos:station:USF.COMPS:TAR:1,2011-05-01T16:54:00Z,28.1560,-82.7580,29.23,1111122 
COMPS,ioos:station:USF.COMPS:TAR:1,2011-05-01T17:00:00Z,28.1560,-82.7580,29.2,1111122 
COMPS,ioos:station:USF.COMPS:TAR:1,2011-05-01T17:06:00Z,28.1560,-82.7580,28.77,1111122 
COMPS,ioos:station:USF.COMPS:TAR:1,2011-05-01T17:12:00Z,28.1560,-82.7580,28.54,1111122 
COMPS,ioos:station:USF.COMPS:TAR:1,2011-05-01T17:18:00Z,28.1560,-82.7580,29.11,1111122 
COMPS,ioos:station:USF.COMPS:TAR:1,2011-05-01T17:24:00Z,28.1560,-82.7580,29.23,1111122 
COMPS,ioos:station:USF.COMPS:TAR:1,2011-05-01T17:30:00Z,28.1560,-82.7580,28.77,1111122 
COMPS,ioos:station:USF.COMPS:TAR:1,2011-05-01T17:36:00Z,28.1560,-82.7580,28.74,1111122 
COMPS,ioos:station:USF.COMPS:TAR:1,2011-05-01T17:42:00Z,28.1560,-82.7580,28.84,1111122 
COMPS,ioos:station:USF.COMPS:TAR:1,2011-05-01T17:48:00Z,28.1560,-82.7580,29.1,1111122 
COMPS,ioos:station:USF.COMPS:TAR:1,2011-05-01T17:54:00Z,28.1560,-82.7580,30.21,1111122 
COMPS,ioos:station:USF.COMPS:TAR:1,2011-05-01T18:00:00Z,28.1560,-82.7580,30.2,1111122 
COMPS,ioos:station:USF.COMPS:TAR:1,2011-05-01T19:00:00Z,28.1560,-82.7580,30.4,1111122 
COMPS,ioos:station:USF.COMPS:TAR:1,2011-05-01T19:06:00Z,28.1560,-82.7580,30.45,1111122 
COMPS,ioos:station:USF.COMPS:TAR:1,2011-05-01T19:12:00Z,28.1560,-82.7580,31.19,1111122 
COMPS,ioos:station:USF.COMPS:TAR:1,2011-05-01T19:18:00Z,28.1560,-82.7580,31.97,1111122 
COMPS,ioos:station:USF.COMPS:TAR:1,2011-05-01T19:24:00Z,28.1560,-82.7580,30.98,1111122 
COMPS,ioos:station:USF.COMPS:TAR:1,2011-05-01T19:30:00Z,28.1560,-82.7580,30.66,1111122 
COMPS,ioos:station:USF.COMPS:TAR:1,2011-05-01T19:36:00Z,28.1560,-82.7580,30.52,1111122 
COMPS,ioos:station:USF.COMPS:TAR:1,2011-05-01T19:42:00Z,28.1560,-82.7580,31.22,1111122 
COMPS,ioos:station:USF.COMPS:TAR:1,2011-05-01T19:48:00Z,28.1560,-82.7580,30.78,1111122 
COMPS,ioos:station:USF.COMPS:TAR:1,2011-05-01T19:54:00Z,28.1560,-82.7580,31.05,1111122 
COMPS,ioos:station:USF.COMPS:TAR:1,2011-05-01T20:00:00Z,28.1560,-82.7580,31.1,1111122 
COMPS,ioos:station:USF.COMPS:TAR:1,2011-05-01T20:06:00Z,28.1560,-82.7580,31.22,1111122 
COMPS,ioos:station:USF.COMPS:TAR:1,2011-05-01T20:12:00Z,28.1560,-82.7580,31.16,1111122 
COMPS,ioos:station:USF.COMPS:TAR:1,2011-05-01T20:18:00Z,28.1560,-82.7580,31.03,1111122 
COMPS,ioos:station:USF.COMPS:TAR:1,2011-05-01T20:24:00Z,28.1560,-82.7580,31.59,1111122 
COMPS,ioos:station:USF.COMPS:TAR:1,2011-05-01T20:30:00Z,28.1560,-82.7580,31.67,1111122 
COMPS,ioos:station:USF.COMPS:TAR:1,2011-05-01T20:36:00Z,28.1560,-82.7580,31.35,1111122 
COMPS,ioos:station:USF.COMPS:TAR:1,2011-05-01T20:42:00Z,28.1560,-82.7580,31.61,1111122 
COMPS,ioos:station:USF.COMPS:TAR:1,2011-05-01T20:48:00Z,28.1560,-82.7580,32.08,1111122 
COMPS,ioos:station:USF.COMPS:TAR:1,2011-05-01T20:54:00Z,28.1560,-82.7580,32.02,1111122 
COMPS,ioos:station:USF.COMPS:TAR:1,2011-05-01T21:00:00Z,28.1560,-82.7580,32.0,1111122 
COMPS,ioos:station:USF.COMPS:TAR:1,2011-05-01T21:06:00Z,28.1560,-82.7580,31.62,1111122 
COMPS,ioos:station:USF.COMPS:TAR:1,2011-05-01T21:12:00Z,28.1560,-82.7580,31.68,1111122 
COMPS,ioos:station:USF.COMPS:TAR:1,2011-05-01T21:18:00Z,28.1560,-82.7580,31.77,1111122 
COMPS,ioos:station:USF.COMPS:TAR:1,2011-05-01T21:24:00Z,28.1560,-82.7580,31.23,1111122 
COMPS,ioos:station:USF.COMPS:TAR:1,2011-05-01T21:30:00Z,28.1560,-82.7580,30.97,1111122 
COMPS,ioos:station:USF.COMPS:TAR:1,2011-05-01T21:36:00Z,28.1560,-82.7580,30.77,1111122 
COMPS,ioos:station:USF.COMPS:TAR:1,2011-05-01T21:42:00Z,28.1560,-82.7580,30.46,1111122 
COMPS,ioos:station:USF.COMPS:TAR:1,2011-05-01T21:48:00Z,28.1560,-82.7580,29.87,1111122 
COMPS,ioos:station:USF.COMPS:TAR:1,2011-05-01T21:54:00Z,28.1560,-82.7580,30.12,1111122 
COMPS,ioos:station:USF.COMPS:TAR:1,2011-05-01T22:00:00Z,28.1560,-82.7580,30.1,1111122 
COMPS,ioos:station:USF.COMPS:TAR:1,2011-05-01T22:06:00Z,28.1560,-82.7580,29.86,1111122 
COMPS,ioos:station:USF.COMPS:TAR:1,2011-05-01T22:12:00Z,28.1560,-82.7580,29.57,1111122 
COMPS,ioos:station:USF.COMPS:TAR:1,2011-05-01T22:18:00Z,28.1560,-82.7580,29.43,1111122 
COMPS,ioos:station:USF.COMPS:TAR:1,2011-05-01T22:24:00Z,28.1560,-82.7580,29.26,1111122 
COMPS,ioos:station:USF.COMPS:TAR:1,2011-05-01T22:30:00Z,28.1560,-82.7580,28.88,1111122 
COMPS,ioos:station:USF.COMPS:TAR:1,2011-05-01T22:36:00Z,28.1560,-82.7580,28.75,1111122 
COMPS,ioos:station:USF.COMPS:TAR:1,2011-05-01T22:42:00Z,28.1560,-82.7580,28.52,1111122 
COMPS,ioos:station:USF.COMPS:TAR:1,2011-05-01T22:48:00Z,28.1560,-82.7580,28.31,1111122 
COMPS,ioos:station:USF.COMPS:TAR:1,2011-05-01T22:54:00Z,28.1560,-82.7580,28.14,1111122 
COMPS,ioos:station:USF.COMPS:TAR:1,2011-05-01T23:00:00Z,28.1560,-82.7580,28.1,1111122 
COMPS,ioos:station:USF.COMPS:TAR:1,2011-05-01T23:06:00Z,28.1560,-82.7580,27.95,1111122 
COMPS,ioos:station:USF.COMPS:TAR:1,2011-05-01T23:12:00Z,28.1560,-82.7580,27.8,1111122 
COMPS,ioos:station:USF.COMPS:TAR:1,2011-05-01T23:18:00Z,28.1560,-82.7580,27.65,1111122 
COMPS,ioos:station:USF.COMPS:TAR:1,2011-05-01T23:24:00Z,28.1560,-82.7580,27.58,1111122 
COMPS,ioos:station:USF.COMPS:TAR:1,2011-05-01T23:30:00Z,28.1560,-82.7580,27.37,1111122 
COMPS,ioos:station:USF.COMPS:TAR:1,2011-05-01T23:36:00Z,28.1560,-82.7580,27.34,1111122 
COMPS,ioos:station:USF.COMPS:TAR:1,2011-05-01T23:42:00Z,28.1560,-82.7580,27.27,1111122 
COMPS,ioos:station:USF.COMPS:TAR:1,2011-05-01T23:48:00Z,28.1560,-82.7580,27.12,1111122 
COMPS,ioos:station:USF.COMPS:TAR:1,2011-05-01T23:54:00Z,28.1560,-82.7580,27.01,1111122 
COMPS,ioos:station:USF.COMPS:TAR:1,2011-05-02T00:00:00Z,28.1560,-82.7580,27.0,1111122 
COMPS,ioos:station:USF.COMPS:TAR:1,2011-05-02T00:06:00Z,28.1560,-82.7580,26.71,1111122 
COMPS,ioos:station:USF.COMPS:TAR:1,2011-05-02T00:12:00Z,28.1560,-82.7580,26.56,1111122 
COMPS,ioos:station:USF.COMPS:TAR:1,2011-05-02T00:18:00Z,28.1560,-82.7580,26.44,1111122 
COMPS,ioos:station:USF.COMPS:TAR:1,2011-05-02T00:24:00Z,28.1560,-82.7580,26.46,1111122 
COMPS,ioos:station:USF.COMPS:TAR:1,2011-05-02T00:30:00Z,28.1560,-82.7580,26.3,1111122 
COMPS,ioos:station:USF.COMPS:TAR:1,2011-05-02T00:36:00Z,28.1560,-82.7580,26.21,1111122 
COMPS,ioos:station:USF.COMPS:TAR:1,2011-05-02T00:42:00Z,28.1560,-82.7580,26.08,1111122 
COMPS,ioos:station:USF.COMPS:TAR:1,2011-05-02T00:48:00Z,28.1560,-82.7580,26.01,1111122 
COMPS,ioos:station:USF.COMPS:TAR:1,2011-05-02T00:54:00Z,28.1560,-82.7580,25.98,1111122 
COMPS,ioos:station:USF.COMPS:TAR:1,2011-05-02T01:00:00Z,28.1560,-82.7580,26.0,1111122 
COMPS,ioos:station:USF.COMPS:TAR:1,2011-05-02T01:06:00Z,28.1560,-82.7580,25.74,1111122 
COMPS,ioos:station:USF.COMPS:TAR:1,2011-05-02T01:12:00Z,28.1560,-82.7580,25.74,1111122 
COMPS,ioos:station:USF.COMPS:TAR:1,2011-05-02T01:18:00Z,28.1560,-82.7580,25.82,1111122 
COMPS,ioos:station:USF.COMPS:TAR:1,2011-05-02T01:24:00Z,28.1560,-82.7580,25.98,1111122 
COMPS,ioos:station:USF.COMPS:TAR:1,2011-05-02T01:30:00Z,28.1560,-82.7580,26.12,1111122 
COMPS,ioos:station:USF.COMPS:TAR:1,2011-05-02T01:36:00Z,28.1560,-82.7580,26.16,1111122 
COMPS,ioos:station:USF.COMPS:TAR:1,2011-05-02T01:42:00Z,28.1560,-82.7580,26.27,1111122 
COMPS,ioos:station:USF.COMPS:TAR:1,2011-05-02T01:48:00Z,28.1560,-82.7580,26.41,1111122 
COMPS,ioos:station:USF.COMPS:TAR:1,2011-05-02T01:54:00Z,28.1560,-82.7580,26.43,1111122 
COMPS,ioos:station:USF.COMPS:TAR:1,2011-05-02T02:00:00Z,28.1560,-82.7580,26.4,1111122 
COMPS,ioos:station:USF.COMPS:TAR:1,2011-05-02T02:06:00Z,28.1560,-82.7580,26.23,1111122 
COMPS,ioos:station:USF.COMPS:TAR:1,2011-05-02T02:12:00Z,28.1560,-82.7580,26.09,1111122 
COMPS,ioos:station:USF.COMPS:TAR:1,2011-05-02T02:18:00Z,28.1560,-82.7580,25.93,1111122 
COMPS,ioos:station:USF.COMPS:TAR:1,2011-05-02T02:24:00Z,28.1560,-82.7580,25.8,1111122 
COMPS,ioos:station:USF.COMPS:TAR:1,2011-05-02T02:30:00Z,28.1560,-82.7580,25.54,1111122 
COMPS,ioos:station:USF.COMPS:TAR:1,2011-05-02T02:36:00Z,28.1560,-82.7580,25.41,1111122 
COMPS,ioos:station:USF.COMPS:TAR:1,2011-05-02T02:42:00Z,28.1560,-82.7580,25.31,1111122 
COMPS,ioos:station:USF.COMPS:TAR:1,2011-05-02T02:48:00Z,28.1560,-82.7580,25.21,1111122 
COMPS,ioos:station:USF.COMPS:TAR:1,2011-05-02T02:54:00Z,28.1560,-82.7580,25.11,1111122 
COMPS,ioos:station:USF.COMPS:TAR:1,2011-05-02T03:00:00Z,28.1560,-82.7580,25.1,1111122 
COMPS,ioos:station:USF.COMPS:TAR:1,2011-05-02T03:06:00Z,28.1560,-82.7580,24.82,1111122 
COMPS,ioos:station:USF.COMPS:TAR:1,2011-05-02T03:12:00Z,28.1560,-82.7580,24.67,1111122 
COMPS,ioos:station:USF.COMPS:TAR:1,2011-05-02T03:18:00Z,28.1560,-82.7580,24.57,1111122 
COMPS,ioos:station:USF.COMPS:TAR:1,2011-05-02T03:24:00Z,28.1560,-82.7580,24.5,1111122 
COMPS,ioos:station:USF.COMPS:TAR:1,2011-05-02T03:30:00Z,28.1560,-82.7580,24.4,1111122 
COMPS,ioos:station:USF.COMPS:TAR:1,2011-05-02T03:36:00Z,28.1560,-82.7580,24.33,1111122 
COMPS,ioos:station:USF.COMPS:TAR:1,2011-05-02T03:42:00Z,28.1560,-82.7580,24.2,1111122 
COMPS,ioos:station:USF.COMPS:TAR:1,2011-05-02T03:48:00Z,28.1560,-82.7580,24.05,1111122 
COMPS,ioos:station:USF.COMPS:TAR:1,2011-05-02T03:54:00Z,28.1560,-82.7580,23.95,1111122 
COMPS,ioos:station:USF.COMPS:TAR:1,2011-05-02T04:00:00Z,28.1560,-82.7580,24.0,1111122 
COMPS,ioos:station:USF.COMPS:TAR:1,2011-05-02T04:06:00Z,28.1560,-82.7580,23.81,1111122 
COMPS,ioos:station:USF.COMPS:TAR:1,2011-05-02T04:12:00Z,28.1560,-82.7580,23.74,1111122 
COMPS,ioos:station:USF.COMPS:TAR:1,2011-05-02T04:18:00Z,28.1560,-82.7580,23.68,1111122 
COMPS,ioos:station:USF.COMPS:TAR:1,2011-05-02T04:24:00Z,28.1560,-82.7580,23.63,1111122 
COMPS,ioos:station:USF.COMPS:TAR:1,2011-05-02T04:30:00Z,28.1560,-82.7580,23.49,1111122 
COMPS,ioos:station:USF.COMPS:TAR:1,2011-05-02T04:36:00Z,28.1560,-82.7580,23.42,1111122 
COMPS,ioos:station:USF.COMPS:TAR:1,2011-05-02T04:42:00Z,28.1560,-82.7580,23.33,1111122 
COMPS,ioos:station:USF.COMPS:TAR:1,2011-05-02T04:48:00Z,28.1560,-82.7580,23.31,1111122 
COMPS,ioos:station:USF.COMPS:TAR:1,2011-05-02T04:54:00Z,28.1560,-82.7580,23.23,1111122 